[[{"header":{"parameterUnit":"m.s-1","parameterCategory":1,"la1":30.2991,"la2":30.254,"lo1":-89.0895,"lo2":-89.0444,"dy":0.0017,"dx":0.0017,"nx":28,"ny":28,"refTime":"2025-12-02T03:00:00:Z","depth":0,"parameterNumber":2,"parameterNumberName":"U-component_of_WINDS"},"data":[0,0,0,0,0,0,0,0,0,0,0,0,0,0,0,0,0,0,0,0,0,0,0,0,0,0,0,0,0,0,0,0,0,0,0,0,0,0,0,0,0,0,0,0,0,0,0,0,0,0,0,0,0,0,0,0,0,0,-1.6972,-1.6973,0,-1.7005,-1.7005,-1.7006,-1.6963,-1.6962,-1.696,-1.6959,-1.6992,-1.6994,-1.6996,0,0,0,0,0,0,0,0,0,0,0,0,0,-1.6873,-1.6875,-1.6972,-1.6973,-1.6973,-1.7005,-1.7005,-1.7006,-1.6964,-1.6962,-1.696,-1.6958,-1.6991,-1.6994,-1.6997,0,0,0,0,0,0,0,0,0,0,0,0,0,-1.6912,-1.6875,-1.6972,-1.6956,-1.6955,-1.7005,-1.7005,-1.7006,-1.6964,-1.6962,-1.6959,-1.6957,-1.699,-1.6994,-1.6997,-1.7064,0,0,-1.7008,-1.7009,0,0,0,0,0,0,0,0,-1.6909,-1.6915,-1.6958,-1.6957,-1.6956,-1.6978,-1.6982,-1.7025,-1.6965,-1.6961,-1.6959,-1.6956,-1.6989,-1.6992,-1.7004,-1.7066,-1.7067,-1.7008,-1.701,-1.7012,-1.7012,0,0,0,0,0,0,0,-1.6907,-1.6914,-1.6985,-1.6959,-1.6958,-1.6947,-1.695,-1.699,-1.6987,-1.6961,-1.6958,-1.6962,-1.6988,-1.7,-1.7004,-1.7068,-1.7008,-1.7011,-1.7013,-1.7014,-1.7184,-1.7186,0,0,0,0,0,0,-1.6906,-1.6912,-1.6984,-1.6986,-1.6927,-1.695,-1.6954,-1.6973,-1.6987,-1.6987,-1.6964,-1.696,-1.6996,-1.7,-1.7005,-1.7083,-1.7011,-1.7015,-1.7017,-1.7182,-1.7185,-1.7187,0,0,0,0,0,0,-1.6904,-1.6913,-1.6983,-1.6948,-1.6956,-1.6954,-1.6977,-1.6975,-1.6987,-1.6989,-1.6988,-1.6977,-1.6994,-1.7,-1.7049,-1.7084,-1.7016,-1.7019,-1.7179,-1.7183,-1.7186,-1.7241,0,0,0,0,0,0,-1.6901,-1.6913,-1.6939,-1.6949,-1.6958,-1.7027,-1.6979,-1.6977,-1.6993,-1.6988,-1.7001,-1.7001,-1.6993,-1.7044,-1.7053,-1.7087,-1.7022,-1.7176,-1.7181,-1.7185,-1.7236,-1.7246,-1.7254,0,0,0,0,0,-1.6898,-1.6953,-1.694,-1.6949,-1.6991,-1.7029,-1.7035,-1.7024,-1.6996,-1.7022,-1.7023,-1.7001,-1.7079,-1.705,-1.7059,-1.7095,-1.7174,-1.7179,-1.7185,-1.7232,-1.7244,-1.7254,0,0,0,0,0,0,-1.6948,-1.6954,-1.694,-1.7,-1.7014,-1.7022,-1.7055,-1.7037,-1.7059,-1.7054,-1.7039,-1.7042,-1.7094,-1.71,-1.7067,-1.7159,-1.7121,-1.7129,-1.7154,-1.7166,-1.7175,-1.7172,-1.7025,0,0,0,0,0,-1.6965,-1.6996,-1.7001,-1.7053,-1.7061,-1.7057,-1.7073,-1.7063,-1.7077,-1.7083,-1.7088,-1.7102,-1.7129,-1.7148,-1.7173,-1.7236,-1.7238,-1.7265,-1.7275,-1.7282,-1.7289,-1.7321,-1.7332,-1.7205,-1.7205,-1.7205,0,0,-1.7003,-1.701,-1.7031,-1.7063,-1.7073,-1.7105,-1.7062,-1.7098,-1.7121,-1.7089,-1.7135,-1.7139,-1.7154,-1.7209,-1.7234,-1.7215,-1.7324,-1.7289,-1.7295,-1.7298,-1.7327,-1.7339,-1.735,-1.7209,-1.7208,-1.7208,0,0,-1.7087,-1.7096,-1.714,-1.7151,-1.7166,-1.7162,-1.7173,-1.7183,-1.7184,-1.723,-1.7205,-1.7232,-1.7281,-1.7291,-1.7303,-1.7389,-1.7369,-1.7398,-1.7446,-1.7477,-1.7487,-1.7496,-1.7526,-1.7536,-1.7405,-1.7405,-1.7405,0,-1.7132,-1.7179,-1.7165,-1.7202,-1.7217,-1.7188,-1.7231,-1.7242,-1.7265,-1.7275,-1.7254,-1.7312,-1.732,-1.7377,-1.7398,-1.7409,-1.742,-1.7397,-1.7487,-1.7496,-1.7504,-1.7532,-1.7543,-1.7408,-1.7408,-1.7407,-1.7407,0,-1.7232,-1.7265,-1.7299,-1.732,-1.7338,-1.7379,-1.7371,-1.739,-1.7378,-1.7377,-1.7423,-1.7431,-1.7457,-1.747,-1.7459,-1.7525,-1.7513,-1.749,-1.7451,-1.7519,-1.7545,-1.7556,-1.7413,-1.7412,-1.7411,-1.741,0,0,-1.735,-1.7362,-1.7374,-1.7383,-1.7397,-1.7421,-1.746,-1.7484,-1.7501,-1.7517,-1.7548,-1.7589,-1.7566,-1.758,-1.757,-1.7597,-1.7663,-1.757,-1.757,-1.7586,-1.7734,-1.7751,-1.7764,-1.765,-1.7652,-1.7653,-1.7733,0,-1.7433,-1.7499,-1.7487,-1.7551,-1.758,-1.7552,-1.7585,-1.7596,-1.7595,-1.762,-1.7618,-1.7647,-1.7616,-1.7624,-1.765,-1.7649,-1.7692,-1.7644,-1.7677,-1.7679,-1.7674,-1.7778,-1.7796,-1.7871,-1.7743,-1.7744,-1.7746,0,-1.7539,-1.7558,-1.7625,-1.7632,-1.7643,-1.7673,-1.7694,-1.7718,-1.773,-1.7727,-1.7741,-1.7725,-1.7762,-1.7723,-1.7773,-1.774,-1.7753,-1.7755,-1.7757,-1.776,-1.7716,-1.7782,-1.7894,-1.7905,-1.7762,-1.776,-1.7759,0,-1.7616,-1.7659,-1.7704,-1.7712,-1.7722,-1.7743,-1.7748,-1.7757,-1.7772,-1.779,-1.78,-1.7822,-1.7834,-1.7851,-1.7841,-1.7814,-1.7892,-1.7853,-1.789,-1.789,-1.7908,-1.7907,-1.8023,-1.7918,-1.7917,-1.7917,-1.7917,0,-1.771,-1.7752,-1.7738,-1.7766,-1.7811,-1.7796,-1.7841,-1.7843,-1.7851,-1.7878,-1.7855,-1.7881,-1.7866,-1.789,-1.7883,-1.7924,-1.793,-1.7928,-1.7926,-1.793,-1.793,-1.7938,-1.7932,-1.792,-1.792,-1.7919,-1.7918,0,-1.7804,-1.7797,-1.7844,-1.7848,-1.785,-1.7883,-1.7887,-1.7912,-1.7909,-1.7943,-1.795,-1.7945,-1.7972,-1.7963,-1.7993,-1.7987,-1.804,-1.8031,-1.8036,-1.8033,-1.807,-1.8067,-1.8195,-1.8211,-1.8096,-1.8097,-1.8098,0,-1.7864,-1.7896,-1.7903,-1.7919,-1.7925,-1.7952,-1.7966,-1.7952,-1.7968,-1.7983,-1.8006,-1.8031,-1.805,-1.8094,-1.8093,-1.8115,-1.8106,-1.8149,-1.8109,-1.8112,-1.8105,-1.8103,-1.8105,-1.8157,-1.8158,-1.816,-1.816,0,-1.7971,-1.7966,-1.7988,-1.8008,-1.8026,-1.8041,-1.8055,-1.8069,-1.8056,-1.8075,-1.8102,-1.8117,-1.8146,-1.817,-1.819,-1.8194,-1.8175,-1.8173,-1.8183,-1.8187,-1.8188,-1.8187,-1.8057,-1.817,-1.8169,-1.8168,-1.8168,-1.8168,-1.805,-1.8075,-1.8084,-1.8108,-1.8116,-1.8129,-1.8152,-1.8151,-1.8173,-1.8196,-1.8186,-1.8217,-1.8226,-1.825,-1.8256,-1.828,-1.8263,-1.8277,-1.8281,-1.8284,-1.8288,-1.8185,-1.8283,-1.8283,-1.8283,-1.8283,-1.8282,0,-1.8154,-1.8158,-1.818,-1.8199,-1.8218,-1.8198,-1.8211,-1.8228,-1.8255,-1.8265,-1.8284,-1.8314,-1.8337,-1.8337,-1.8358,-1.8377,-1.8368,-1.8383,-1.8381,-1.8382,-1.8303,-1.8292,-1.8389,-1.8389,-1.8389,-1.8389,-1.8389,-1.8389,-1.8211,-1.8252,-1.8247,-1.8292,-1.8295,-1.8325,-1.8334,-1.8345,-1.8352,-1.8387,-1.8405,-1.8405,-1.841,-1.8431,-1.8451,-1.845,-1.8459,-1.8476,-1.8472,-1.8398,-1.8388,-1.8378,-1.8367,-1.8479,-1.8479,-1.8549,-1.855,-1.855]},{"header":{"parameterUnit":"m.s-1","parameterCategory":1,"la1":30.2991,"la2":30.254,"lo1":-89.0895,"lo2":-89.0444,"dy":0.0017,"dx":0.0017,"nx":28,"ny":28,"refTime":"2025-12-02T03:00:00:Z","depth":0,"parameterNumber":3,"parameterNumberName":"V-component_of_WINDS"},"data":[0,0,0,0,0,0,0,0,0,0,0,0,0,0,0,0,0,0,0,0,0,0,0,0,0,0,0,0,0,0,0,0,0,0,0,0,0,0,0,0,0,0,0,0,0,0,0,0,0,0,0,0,0,0,0,0,0,0,-4.2716,-4.2717,0,-4.2801,-4.2802,-4.2803,-4.2763,-4.2761,-4.2759,-4.2757,-4.284,-4.2844,-4.2848,0,0,0,0,0,0,0,0,0,0,0,0,0,-4.2515,-4.2519,-4.2716,-4.2717,-4.2718,-4.2801,-4.2802,-4.2803,-4.2763,-4.2761,-4.2758,-4.2756,-4.2839,-4.2844,-4.2849,0,0,0,0,0,0,0,0,0,0,0,0,0,-4.2601,-4.252,-4.2716,-4.2708,-4.2709,-4.28,-4.2802,-4.2803,-4.2764,-4.2761,-4.2758,-4.2755,-4.2837,-4.2843,-4.285,-4.2952,0,0,-4.2869,-4.2872,0,0,0,0,0,0,0,0,-4.2596,-4.2608,-4.2708,-4.2709,-4.2709,-4.2768,-4.2761,-4.2853,-4.2765,-4.2743,-4.2757,-4.2753,-4.2819,-4.2826,-4.2849,-4.2956,-4.296,-4.2869,-4.2873,-4.2876,-4.2878,0,0,0,0,0,0,0,-4.259,-4.2605,-4.2749,-4.271,-4.2711,-4.2699,-4.2708,-4.2779,-4.2797,-4.2745,-4.2742,-4.2753,-4.2818,-4.2843,-4.2851,-4.2961,-4.2869,-4.2875,-4.2879,-4.2881,-4.3154,-4.3157,0,0,0,0,0,0,-4.2585,-4.26,-4.2747,-4.2752,-4.2644,-4.2705,-4.2715,-4.2752,-4.2797,-4.28,-4.2755,-4.2751,-4.2834,-4.2843,-4.2853,-4.2975,-4.2876,-4.2882,-4.2885,-4.315,-4.3154,-4.3158,0,0,0,0,0,0,-4.2581,-4.2599,-4.2743,-4.2675,-4.2693,-4.2712,-4.2754,-4.2756,-4.2781,-4.2805,-4.2808,-4.2778,-4.2832,-4.2845,-4.2928,-4.2977,-4.2885,-4.289,-4.3146,-4.3152,-4.3156,-4.322,0,0,0,0,0,0,-4.2575,-4.2597,-4.2638,-4.2676,-4.2697,-4.2818,-4.2758,-4.276,-4.2792,-4.2787,-4.2826,-4.283,-4.283,-4.2918,-4.2934,-4.2984,-4.2895,-4.3142,-4.3149,-4.3155,-4.3213,-4.3226,-4.3238,0,0,0,0,0,-4.2568,-4.2652,-4.264,-4.2658,-4.2748,-4.2821,-4.2832,-4.2832,-4.2796,-4.2836,-4.2851,-4.2829,-4.297,-4.2927,-4.2944,-4.2997,-4.3139,-4.3147,-4.3154,-4.3208,-4.3224,-4.3237,0,0,0,0,0,0,-4.2618,-4.2657,-4.2644,-4.2744,-4.2779,-4.2814,-4.2864,-4.2849,-4.2895,-4.2887,-4.2884,-4.2893,-4.2979,-4.2996,-4.2949,-4.3098,-4.3048,-4.306,-4.3083,-4.3099,-4.3111,-4.3104,-4.29,0,0,0,0,0,-4.2641,-4.2698,-4.2729,-4.2813,-4.2832,-4.2845,-4.2877,-4.2873,-4.291,-4.2924,-4.2945,-4.298,-4.3032,-4.3066,-4.3116,-4.3216,-4.3222,-4.326,-4.3272,-4.3282,-4.3292,-4.3344,-4.336,-4.3184,-4.3184,-4.3184,0,0,-4.2688,-4.2717,-4.2753,-4.2824,-4.2851,-4.2908,-4.2858,-4.2921,-4.2963,-4.2933,-4.3013,-4.303,-4.3068,-4.316,-4.3201,-4.3177,-4.3342,-4.3292,-4.33,-4.3304,-4.3353,-4.337,-4.3385,-4.3189,-4.3188,-4.3187,0,0,-4.2803,-4.2832,-4.2904,-4.2932,-4.2974,-4.2982,-4.2999,-4.3036,-4.3046,-4.3126,-4.3104,-4.3153,-4.3244,-4.3271,-4.3297,-4.3421,-4.3401,-4.3437,-4.35,-4.3551,-4.3565,-4.3577,-4.3619,-4.3635,-4.3447,-4.3447,-4.3447,0,-4.2856,-4.2944,-4.2943,-4.3008,-4.3038,-4.3014,-4.3086,-4.3113,-4.3169,-4.319,-4.3162,-4.3273,-4.3298,-4.3394,-4.3424,-4.3447,-4.3465,-4.3432,-4.3563,-4.3575,-4.3587,-4.3627,-4.3643,-4.3451,-4.345,-4.345,-4.345,0,-4.3006,-4.3066,-4.3119,-4.3174,-4.3211,-4.3279,-4.3287,-4.3324,-4.3316,-4.3327,-4.3407,-4.3435,-4.3489,-4.3512,-4.3506,-4.3607,-4.359,-4.3563,-4.3513,-4.3608,-4.3645,-4.3661,-4.3457,-4.3455,-4.3454,-4.3453,0,0,-4.3155,-4.3208,-4.3227,-4.3251,-4.3294,-4.334,-4.3406,-4.3459,-4.349,-4.3529,-4.3582,-4.3658,-4.3633,-4.3662,-4.3659,-4.3703,-4.3797,-4.367,-4.3671,-4.3692,-4.3908,-4.3927,-4.3945,-4.3784,-4.3787,-4.379,-4.3904,0,-4.3272,-4.3389,-4.3389,-4.3496,-4.3551,-4.3528,-4.3585,-4.3617,-4.3628,-4.3674,-4.3686,-4.3739,-4.3703,-4.372,-4.3763,-4.3777,-4.384,-4.3768,-4.3832,-4.3835,-4.3822,-4.3965,-4.3986,-4.4093,-4.3919,-4.3921,-4.3923,0,-4.3425,-4.3469,-4.3581,-4.3615,-4.3638,-4.3689,-4.3737,-4.3782,-4.3817,-4.3822,-4.3854,-4.3843,-4.3908,-4.3857,-4.3945,-4.3896,-4.3922,-4.3932,-4.3936,-4.3941,-4.3884,-4.3972,-4.4127,-4.4142,-4.3947,-4.3945,-4.3943,0,-4.352,-4.3607,-4.3686,-4.3707,-4.3749,-4.3785,-4.3804,-4.3835,-4.3867,-4.3908,-4.3927,-4.3975,-4.4001,-4.4038,-4.4039,-4.4002,-4.4127,-4.4077,-4.4131,-4.4131,-4.4158,-4.4156,-4.4318,-4.4177,-4.4177,-4.4177,-4.4176,0,-4.365,-4.372,-4.3729,-4.3777,-4.3853,-4.3851,-4.3926,-4.3942,-4.397,-4.4019,-4.4002,-4.4048,-4.4047,-4.4094,-4.4095,-4.4167,-4.4179,-4.4183,-4.4182,-4.4184,-4.4183,-4.42,-4.4192,-4.4181,-4.418,-4.4179,-4.4178,0,-4.377,-4.3779,-4.3862,-4.3895,-4.3905,-4.3959,-4.3986,-4.4031,-4.404,-4.4102,-4.4116,-4.413,-4.4183,-4.4188,-4.4251,-4.4251,-4.4337,-4.4329,-4.4326,-4.4324,-4.4378,-4.4372,-4.4555,-4.4578,-4.4423,-4.4425,-4.4426,0,-4.3852,-4.3905,-4.3943,-4.3975,-4.3996,-4.4048,-4.4079,-4.4079,-4.4112,-4.4155,-4.4194,-4.4246,-4.4287,-4.4373,-4.4388,-4.4434,-4.4426,-4.4487,-4.4433,-4.4433,-4.4425,-4.4422,-4.4426,-4.4497,-4.4499,-4.45,-4.4501,0,-4.3995,-4.3997,-4.4044,-4.4092,-4.413,-4.4168,-4.4203,-4.423,-4.4234,-4.4272,-4.4327,-4.4359,-4.4422,-4.4473,-4.4518,-4.4536,-4.4519,-4.4518,-4.4533,-4.4535,-4.453,-4.4532,-4.4353,-4.4514,-4.4513,-4.4512,-4.4511,-4.4511,-4.4097,-4.4142,-4.4176,-4.4228,-4.4254,-4.4287,-4.433,-4.4344,-4.4391,-4.4442,-4.4439,-4.4499,-4.453,-4.459,-4.461,-4.4656,-4.4636,-4.4657,-4.4663,-4.4668,-4.4673,-4.4524,-4.4665,-4.4664,-4.4664,-4.4664,-4.4663,0,-4.4239,-4.4259,-4.4307,-4.4357,-4.4397,-4.4378,-4.4416,-4.445,-4.4504,-4.4535,-4.4576,-4.4637,-4.4686,-4.4704,-4.4752,-4.4785,-4.4778,-4.4797,-4.4794,-4.4798,-4.4689,-4.4671,-4.4801,-4.4801,-4.4801,-4.4801,-4.4801,-4.4801,-4.4317,-4.4391,-4.4397,-4.4483,-4.4502,-4.4561,-4.4584,-4.4613,-4.4638,-4.4708,-4.4749,-4.476,-4.4786,-4.4834,-4.4878,-4.4881,-4.4899,-4.4921,-4.4921,-4.4819,-4.4806,-4.4792,-4.4775,-4.4925,-4.4925,-4.5026,-4.5027,-4.5028]}]]